bmsdvc3.tbs
77.0000 TLOS

0.0000

UNSTAKED

77.0000 TLOS

STAKED

NET 0.0000 / CPU 0.0000

UNSTAKING

0.10 ms. / 0.01 hr.

CPU 70.00 TLOS

0.15 KB / 0.01 GB

BANDWIDTH 7.00 TLOS

3.43 KB / 117.96 KB

MEMORY USAGE 2.91 %
TOKENS
VOTES
Showing 1 to 200 entries
ACTIONS
DATE BLOCK TRX TYPE DATA
2019-06-23T09:33:34 33065655 632485... logstats { "device_id" : 3000, "temperature" : "0.87500000000000000", "humidity" : "1.00000000000000000", "vin" : "0.00000000000000000", "pressure" : "205.24899999999999523", "lat" : "-31.95050000000000168", "lon" : "115.86050000000000182" }
2019-06-21T23:57:45 32823863 0f74a1... logstats { "device_id" : 3000, "temperature" : "11.45979999999999954", "humidity" : "34.83359999999999701", "vin" : "242.97249999999999659", "pressure" : "205.19839999999999236", "lat" : "-31.95050000000000168", "lon" : "115.86050000000000182" }
2019-06-21T23:56:30 32823707 54d2cc... logstats { "device_id" : 3000, "temperature" : "11.60379999999999967", "humidity" : "34.61590000000000344", "vin" : "242.58179999999998699", "pressure" : "205.20140000000000668", "lat" : "-31.95050000000000168", "lon" : "115.86050000000000182" }
2019-06-21T23:52:19 32823203 8930a2... logstats { "device_id" : 3000, "temperature" : "11.67580000000000062", "humidity" : "34.54330000000000211", "vin" : "240.62870000000000914", "pressure" : "205.21199999999998909", "lat" : "-31.95050000000000168", "lon" : "115.86050000000000182" }
2019-06-21T23:48:05 32822705 e632c6... logstats { "device_id" : 3000, "temperature" : "11.63979999999999926", "humidity" : "34.57959999999999923", "vin" : "242.97249999999999659", "pressure" : "205.20920000000000982", "lat" : "-31.95050000000000168", "lon" : "115.86050000000000182" }
2019-06-21T23:46:46 32822547 a6a4f5... logstats { "device_id" : 3000, "temperature" : "11.53180000000000049", "humidity" : "34.77420000000000044", "vin" : "241.80060000000000286", "pressure" : "205.22040000000001214", "lat" : "-31.95050000000000168", "lon" : "115.86050000000000182" }
2019-06-21T23:45:28 32822390 a3e927... logstats { "device_id" : 3000, "temperature" : "11.51379999999999981", "humidity" : "34.68509999999999849", "vin" : "241.80060000000000286", "pressure" : "205.21399999999999864", "lat" : "-31.95050000000000168", "lon" : "115.86050000000000182" }
2019-06-21T23:42:41 32822049 111320... logstats { "device_id" : 3000, "temperature" : "11.63979999999999926", "humidity" : "34.38499999999999801", "vin" : "241.80060000000000286", "pressure" : "205.20160000000001332", "lat" : "-31.95050000000000168", "lon" : "115.86050000000000182" }
2019-06-21T23:30:02 32820537 7c42ba... logstats { "device_id" : 3000, "temperature" : "11.33380000000000010", "humidity" : "34.92920000000000158", "vin" : "242.58179999999998699", "pressure" : "205.22309999999998809", "lat" : "-31.95050000000000168", "lon" : "115.86050000000000182" }
2019-06-21T23:21:30 32819507 243373... logstats { "device_id" : 3000, "temperature" : "11.56780000000000008", "humidity" : "34.62579999999999814", "vin" : "242.58179999999998699", "pressure" : "205.24369999999998981", "lat" : "-31.95050000000000168", "lon" : "115.86050000000000182" }
2019-06-21T23:18:46 32819184 a33144... logstats { "device_id" : 3000, "temperature" : "11.62180000000000035", "humidity" : "34.52680000000000149", "vin" : "241.80060000000000286", "pressure" : "205.24039999999999395", "lat" : "-31.95050000000000168", "lon" : "115.86050000000000182" }
2019-06-21T23:17:30 32819028 0d3382... logstats { "device_id" : 3000, "temperature" : "11.67580000000000062", "humidity" : "33.26019999999999754", "vin" : "241.80060000000000286", "pressure" : "205.24000000000000909", "lat" : "-31.95050000000000168", "lon" : "115.86050000000000182" }
2019-06-21T23:16:12 32818877 b32c78... logstats { "device_id" : 3000, "temperature" : "11.53180000000000049", "humidity" : "34.64220000000000255", "vin" : "242.97249999999999659", "pressure" : "205.24019999999998731", "lat" : "-31.95050000000000168", "lon" : "115.86050000000000182" }
2019-06-21T23:14:54 32818720 8088c3... logstats { "device_id" : 3000, "temperature" : "11.27979999999999983", "humidity" : "34.68840000000000146", "vin" : "241.80060000000000286", "pressure" : "205.24119999999999209", "lat" : "-31.95050000000000168", "lon" : "115.86050000000000182" }
2019-06-21T23:13:38 32818563 ee61ba... logstats { "device_id" : 3000, "temperature" : "11.42379999999999995", "humidity" : "34.87310000000000088", "vin" : "241.80060000000000286", "pressure" : "205.24410000000000309", "lat" : "-31.95050000000000168", "lon" : "115.86050000000000182" }
2019-06-21T23:03:46 32817377 283329... logstats { "device_id" : 3000, "temperature" : "11.31579999999999941", "humidity" : "34.84669999999999845", "vin" : "239.45679999999998699", "pressure" : "205.24279999999998836", "lat" : "-31.95050000000000168", "lon" : "115.86050000000000182" }
2019-06-21T23:01:07 32817064 ce0a73... logstats { "device_id" : 3000, "temperature" : "11.17179999999999929", "humidity" : "34.85329999999999728", "vin" : "241.01929999999998699", "pressure" : "205.24369999999998981", "lat" : "-31.95050000000000168", "lon" : "115.86050000000000182" }
2019-06-21T22:56:51 32816554 6b5115... logstats { "device_id" : 3000, "temperature" : "11.27979999999999983", "humidity" : "34.50039999999999907", "vin" : "241.80060000000000286", "pressure" : "205.24719999999999231", "lat" : "-31.95050000000000168", "lon" : "115.86050000000000182" }
2019-06-21T22:55:36 32816400 f52378... logstats { "device_id" : 3000, "temperature" : "11.27979999999999983", "humidity" : "34.30250000000000199", "vin" : "241.80060000000000286", "pressure" : "205.25849999999999795", "lat" : "-31.95050000000000168", "lon" : "115.86050000000000182" }
2019-06-21T22:52:48 32816069 68a049... logstats { "device_id" : 3000, "temperature" : "11.35180000000000078", "humidity" : "35.10070000000000334", "vin" : "240.62870000000000914", "pressure" : "205.25550000000001205", "lat" : "-31.95050000000000168", "lon" : "115.86050000000000182" }
2019-06-21T22:51:30 32815911 070c87... logstats { "device_id" : 3000, "temperature" : "11.33380000000000010", "humidity" : "34.54330000000000211", "vin" : "240.23799999999999955", "pressure" : "205.25939999999999941", "lat" : "-31.95050000000000168", "lon" : "115.86050000000000182" }
2019-06-21T22:48:46 32815579 2cdb5a... logstats { "device_id" : 3000, "temperature" : "11.49579999999999913", "humidity" : "34.33879999999999910", "vin" : "242.58179999999998699", "pressure" : "205.27000000000001023", "lat" : "-31.95050000000000168", "lon" : "115.86050000000000182" }
2019-06-21T22:47:30 32815425 294842... logstats { "device_id" : 3000, "temperature" : "11.40579999999999927", "humidity" : "34.49710000000000321", "vin" : "240.62870000000000914", "pressure" : "205.27289999999999281", "lat" : "-31.95050000000000168", "lon" : "115.86050000000000182" }
2019-06-21T22:43:15 32814922 15dc90... logstats { "device_id" : 3000, "temperature" : "11.42379999999999995", "humidity" : "34.79070000000000107", "vin" : "241.40989999999999327", "pressure" : "205.28010000000000446", "lat" : "-31.95050000000000168", "lon" : "115.86050000000000182" }
2019-06-21T22:38:49 32814385 bb138e... logstats { "device_id" : 3000, "temperature" : "11.20780000000000065", "humidity" : "34.76100000000000279", "vin" : "241.01929999999998699", "pressure" : "205.28530000000000655", "lat" : "-31.95050000000000168", "lon" : "115.86050000000000182" }
2019-06-21T22:37:30 32814232 1b544e... logstats { "device_id" : 3000, "temperature" : "11.08179999999999943", "humidity" : "34.77420000000000044", "vin" : "242.19120000000000914", "pressure" : "205.27049999999999841", "lat" : "-31.95050000000000168", "lon" : "115.86050000000000182" }
2019-06-21T22:31:51 32813555 faec97... logstats { "device_id" : 3000, "temperature" : "11.13579999999999970", "humidity" : "34.76429999999999865", "vin" : "241.40989999999999327", "pressure" : "205.26890000000000214", "lat" : "-31.95050000000000168", "lon" : "115.86050000000000182" }
2019-06-21T22:30:33 32813398 e38c52... logstats { "device_id" : 3000, "temperature" : "11.22579999999999956", "humidity" : "34.58619999999999806", "vin" : "240.23799999999999955", "pressure" : "205.27010000000001355", "lat" : "-31.95050000000000168", "lon" : "115.86050000000000182" }
2019-06-21T22:29:13 32813242 7c4128... logstats { "device_id" : 3000, "temperature" : "11.13579999999999970", "humidity" : "34.67190000000000083", "vin" : "241.01929999999998699", "pressure" : "205.27789999999998827", "lat" : "-31.95050000000000168", "lon" : "115.86050000000000182" }
2019-06-21T22:24:58 32812725 aead42... logstats { "device_id" : 3000, "temperature" : "11.27979999999999983", "humidity" : "34.51030000000000086", "vin" : "240.23799999999999955", "pressure" : "205.27809999999999491", "lat" : "-31.95050000000000168", "lon" : "115.86050000000000182" }
2019-06-21T22:23:43 32812571 e4c702... logstats { "device_id" : 3000, "temperature" : "11.24380000000000024", "humidity" : "34.32229999999999848", "vin" : "242.19120000000000914", "pressure" : "205.28389999999998849", "lat" : "-31.95050000000000168", "lon" : "115.86050000000000182" }
2019-06-21T22:16:24 32811703 8718f3... logstats { "device_id" : 3000, "temperature" : "11.33380000000000010", "humidity" : "34.32229999999999848", "vin" : "239.84739999999999327", "pressure" : "205.28039999999998599", "lat" : "-31.95050000000000168", "lon" : "115.86050000000000182" }
2019-06-21T22:04:58 32810329 00da4d... logstats { "device_id" : 3000, "temperature" : "10.93779999999999930", "humidity" : "34.45089999999999719", "vin" : "240.23799999999999955", "pressure" : "205.27119999999999322", "lat" : "-31.95050000000000168", "lon" : "115.86050000000000182" }
2019-06-21T22:02:13 32809991 4cfb1e... logstats { "device_id" : 3000, "temperature" : "10.86570000000000036", "humidity" : "34.63230000000000075", "vin" : "241.80060000000000286", "pressure" : "205.26869999999999550", "lat" : "-31.95050000000000168", "lon" : "115.86050000000000182" }
2019-06-21T22:00:57 32809840 eea12a... logstats { "device_id" : 3000, "temperature" : "10.86570000000000036", "humidity" : "34.67849999999999966", "vin" : "241.80060000000000286", "pressure" : "205.26470000000000482", "lat" : "-31.95050000000000168", "lon" : "115.86050000000000182" }
2019-06-21T21:59:42 32809690 5b0fd3... logstats { "device_id" : 3000, "temperature" : "10.86570000000000036", "humidity" : "34.78410000000000224", "vin" : "240.23799999999999955", "pressure" : "205.26910000000000878", "lat" : "-31.95050000000000168", "lon" : "115.86050000000000182" }
2019-06-21T21:52:34 32808842 df64ad... logstats { "device_id" : 3000, "temperature" : "10.93779999999999930", "humidity" : "34.45089999999999719", "vin" : "242.19120000000000914", "pressure" : "205.26709999999999923", "lat" : "-31.95050000000000168", "lon" : "115.86050000000000182" }
2019-06-21T21:51:16 32808686 b82c7f... logstats { "device_id" : 3000, "temperature" : "11.06380000000000052", "humidity" : "34.53340000000000032", "vin" : "240.62870000000000914", "pressure" : "205.27959999999998786", "lat" : "-31.95050000000000168", "lon" : "115.86050000000000182" }
2019-06-21T21:50:00 32808530 047385... logstats { "device_id" : 3000, "temperature" : "10.95579999999999998", "humidity" : "34.47399999999999665", "vin" : "242.97249999999999659", "pressure" : "205.27269999999998618", "lat" : "-31.95050000000000168", "lon" : "115.86050000000000182" }
2019-06-21T21:45:35 32808002 3edb18... logstats { "device_id" : 3000, "temperature" : "10.79369999999999941", "humidity" : "34.84009999999999962", "vin" : "239.45679999999998699", "pressure" : "205.27479999999999905", "lat" : "-31.95050000000000168", "lon" : "115.86050000000000182" }
2019-06-21T21:41:25 32807498 2ef34c... logstats { "device_id" : 3000, "temperature" : "10.57770000000000010", "humidity" : "34.93249999999999744", "vin" : "240.23799999999999955", "pressure" : "205.28059999999999263", "lat" : "-31.95050000000000168", "lon" : "115.86050000000000182" }
2019-06-21T21:40:10 32807347 7b742c... logstats { "device_id" : 3000, "temperature" : "10.43369999999999997", "humidity" : "35.34479999999999933", "vin" : "241.80060000000000286", "pressure" : "205.28000000000000114", "lat" : "-31.95050000000000168", "lon" : "115.86050000000000182" }
2019-06-21T21:37:23 32807014 158241... logstats { "device_id" : 3000, "temperature" : "10.84769999999999968", "humidity" : "34.68180000000000263", "vin" : "242.19120000000000914", "pressure" : "205.27570000000000050", "lat" : "-31.95050000000000168", "lon" : "115.86050000000000182" }
2019-06-21T21:34:42 32806689 46a1ee... logstats { "device_id" : 3000, "temperature" : "10.82970000000000077", "humidity" : "34.58950000000000102", "vin" : "240.23799999999999955", "pressure" : "205.27180000000001314", "lat" : "-31.95050000000000168", "lon" : "115.86050000000000182" }
2019-06-21T21:33:26 32806538 440626... logstats { "device_id" : 3000, "temperature" : "10.86570000000000036", "humidity" : "34.62250000000000227", "vin" : "242.19120000000000914", "pressure" : "205.27199999999999136", "lat" : "-31.95050000000000168", "lon" : "115.86050000000000182" }
2019-06-21T21:26:25 32805704 4079bf... logstats { "device_id" : 3000, "temperature" : "10.81170000000000009", "humidity" : "34.89620000000000033", "vin" : "241.40989999999999327", "pressure" : "205.27320000000000277", "lat" : "-31.95050000000000168", "lon" : "115.86050000000000182" }
2019-06-21T21:22:09 32805186 70a546... logstats { "device_id" : 3000, "temperature" : "10.81170000000000009", "humidity" : "34.55649999999999977", "vin" : "239.84739999999999327", "pressure" : "205.29650000000000887", "lat" : "-31.95050000000000168", "lon" : "115.86050000000000182" }
2019-06-21T21:16:22 32804494 22addd... logstats { "device_id" : 3000, "temperature" : "10.86570000000000036", "humidity" : "34.55980000000000274", "vin" : "239.45679999999998699", "pressure" : "205.30570000000000164", "lat" : "-31.95050000000000168", "lon" : "115.86050000000000182" }
2019-06-21T21:13:40 32804167 082504... logstats { "device_id" : 3000, "temperature" : "10.34370000000000012", "humidity" : "35.42069999999999652", "vin" : "241.80060000000000286", "pressure" : "205.31649999999999068", "lat" : "-31.95050000000000168", "lon" : "115.86050000000000182" }
2019-06-21T21:10:58 32803842 c96155... logstats { "device_id" : 3000, "temperature" : "10.30770000000000053", "humidity" : "35.39759999999999707", "vin" : "241.40989999999999327", "pressure" : "205.32679999999999154", "lat" : "-31.95050000000000168", "lon" : "115.86050000000000182" }
2019-06-21T21:09:43 32803695 ee8cff... logstats { "device_id" : 3000, "temperature" : "10.48770000000000024", "humidity" : "35.51959999999999695", "vin" : "240.62870000000000914", "pressure" : "205.33529999999998950", "lat" : "-31.95050000000000168", "lon" : "115.86050000000000182" }
2019-06-21T21:08:27 32803544 289a41... logstats { "device_id" : 3000, "temperature" : "10.39770000000000039", "humidity" : "34.82039999999999935", "vin" : "239.84739999999999327", "pressure" : "205.32990000000000919", "lat" : "-31.95050000000000168", "lon" : "115.86050000000000182" }
2019-06-21T21:07:12 32803390 1ebb63... logstats { "device_id" : 3000, "temperature" : "10.54170000000000051", "humidity" : "34.90610000000000213", "vin" : "240.62870000000000914", "pressure" : "205.33400000000000318", "lat" : "-31.95050000000000168", "lon" : "115.86050000000000182" }
2019-06-21T21:04:17 32803046 24a116... logstats { "device_id" : 3000, "temperature" : "10.72170000000000023", "humidity" : "34.56969999999999743", "vin" : "241.01929999999998699", "pressure" : "205.33709999999999241", "lat" : "-31.95050000000000168", "lon" : "115.86050000000000182" }
2019-06-21T21:03:02 32802890 9548aa... logstats { "device_id" : 3000, "temperature" : "10.86570000000000036", "humidity" : "34.71479999999999677", "vin" : "241.01929999999998699", "pressure" : "205.33709999999999241", "lat" : "-31.95050000000000168", "lon" : "115.86050000000000182" }
2019-06-21T20:58:53 32802395 e82905... logstats { "device_id" : 3000, "temperature" : "10.81170000000000009", "humidity" : "34.66859999999999786", "vin" : "239.84739999999999327", "pressure" : "205.33510000000001128", "lat" : "-31.95050000000000168", "lon" : "115.86050000000000182" }
2019-06-21T20:57:38 32802240 eb3ebb... logstats { "device_id" : 3000, "temperature" : "10.73969999999999914", "humidity" : "34.64220000000000255", "vin" : "240.23799999999999955", "pressure" : "205.33760000000000900", "lat" : "-31.95050000000000168", "lon" : "115.86050000000000182" }
2019-06-21T20:54:55 32801915 23d216... logstats { "device_id" : 3000, "temperature" : "10.81170000000000009", "humidity" : "34.59279999999999688", "vin" : "241.40989999999999327", "pressure" : "205.34139999999999304", "lat" : "-31.95050000000000168", "lon" : "115.86050000000000182" }
2019-06-21T20:53:34 32801764 de3015... logstats { "device_id" : 3000, "temperature" : "10.73969999999999914", "humidity" : "34.46079999999999899", "vin" : "240.62870000000000914", "pressure" : "205.33979999999999677", "lat" : "-31.95050000000000168", "lon" : "115.86050000000000182" }
2019-06-21T20:49:25 32801262 410347... logstats { "device_id" : 3000, "temperature" : "10.72170000000000023", "humidity" : "34.84340000000000259", "vin" : "242.19120000000000914", "pressure" : "205.33889999999999532", "lat" : "-31.95050000000000168", "lon" : "115.86050000000000182" }
2019-06-21T20:40:43 32800212 9a7e09... logstats { "device_id" : 3000, "temperature" : "10.18169999999999931", "humidity" : "35.34479999999999933", "vin" : "241.01929999999998699", "pressure" : "205.37209999999998900", "lat" : "-31.95050000000000168", "lon" : "115.86050000000000182" }
2019-06-21T20:39:23 32800058 5e070c... logstats { "device_id" : 3000, "temperature" : "9.96570000000000000", "humidity" : "34.02539999999999765", "vin" : "241.80060000000000286", "pressure" : "205.35710000000000264", "lat" : "-31.95050000000000168", "lon" : "115.86050000000000182" }
2019-06-21T20:36:43 32799738 5d15c1... logstats { "device_id" : 3000, "temperature" : "10.09169999999999945", "humidity" : "34.94570000000000221", "vin" : "241.40989999999999327", "pressure" : "205.36979999999999791", "lat" : "-31.95050000000000168", "lon" : "115.86050000000000182" }
2019-06-21T20:30:59 32799047 8becd1... logstats { "device_id" : 3000, "temperature" : "10.81170000000000009", "humidity" : "34.52020000000000266", "vin" : "240.62870000000000914", "pressure" : "205.35249999999999204", "lat" : "-31.95050000000000168", "lon" : "115.86050000000000182" }
2019-06-21T20:28:16 32798719 23f950... logstats { "device_id" : 3000, "temperature" : "10.73969999999999914", "humidity" : "34.50039999999999907", "vin" : "241.40989999999999327", "pressure" : "205.35450000000000159", "lat" : "-31.95050000000000168", "lon" : "115.86050000000000182" }
2019-06-21T20:27:01 32798569 38cb57... logstats { "device_id" : 3000, "temperature" : "10.73969999999999914", "humidity" : "34.72469999999999857", "vin" : "241.01929999999998699", "pressure" : "205.35349999999999682", "lat" : "-31.95050000000000168", "lon" : "115.86050000000000182" }
2019-06-21T20:21:13 32797872 5d4320... logstats { "device_id" : 3000, "temperature" : "10.75769999999999982", "humidity" : "34.47729999999999961", "vin" : "241.01929999999998699", "pressure" : "205.35360000000000014", "lat" : "-31.95050000000000168", "lon" : "115.86050000000000182" }
2019-06-21T20:19:57 32797725 3d56c8... logstats { "device_id" : 3000, "temperature" : "10.81170000000000009", "humidity" : "34.91270000000000095", "vin" : "241.40989999999999327", "pressure" : "205.35130000000000905", "lat" : "-31.95050000000000168", "lon" : "115.86050000000000182" }
2019-06-21T20:12:52 32796874 b8c7dc... logstats { "device_id" : 3000, "temperature" : "10.25370000000000026", "humidity" : "35.53940000000000055", "vin" : "241.40989999999999327", "pressure" : "205.34700000000000841", "lat" : "-31.95050000000000168", "lon" : "115.86050000000000182" }
2019-06-21T20:11:37 32796723 610bd6... logstats { "device_id" : 3000, "temperature" : "10.07370000000000054", "humidity" : "35.28869999999999862", "vin" : "240.23799999999999955", "pressure" : "205.32519999999999527", "lat" : "-31.95050000000000168", "lon" : "115.86050000000000182" }
2019-06-21T20:07:35 32796234 dd6405... logstats { "device_id" : 3000, "temperature" : "10.27169999999999916", "humidity" : "35.35470000000000113", "vin" : "241.40989999999999327", "pressure" : "205.32939999999999259", "lat" : "-31.95050000000000168", "lon" : "115.86050000000000182" }
2019-06-21T20:00:16 32795362 a60f1d... logstats { "device_id" : 3000, "temperature" : "10.77570000000000050", "humidity" : "34.72469999999999857", "vin" : "240.62870000000000914", "pressure" : "205.32429999999999382", "lat" : "-31.95050000000000168", "lon" : "115.86050000000000182" }
2019-06-21T19:52:58 32794488 409959... logstats { "device_id" : 3000, "temperature" : "10.61369999999999969", "humidity" : "34.65870000000000317", "vin" : "242.19120000000000914", "pressure" : "205.30639999999999645", "lat" : "-31.95050000000000168", "lon" : "115.86050000000000182" }
2019-06-21T19:51:37 32794330 6186e7... logstats { "device_id" : 3000, "temperature" : "10.54170000000000051", "humidity" : "34.68180000000000263", "vin" : "242.58179999999998699", "pressure" : "205.30500000000000682", "lat" : "-31.95050000000000168", "lon" : "115.86050000000000182" }
2019-06-21T19:48:54 32793995 32f8d3... logstats { "device_id" : 3000, "temperature" : "10.55969999999999942", "humidity" : "35.19310000000000116", "vin" : "241.40989999999999327", "pressure" : "205.29660000000001219", "lat" : "-31.95050000000000168", "lon" : "115.86050000000000182" }
2019-06-21T19:39:48 32792906 1bb01f... logstats { "device_id" : 3000, "temperature" : "10.32569999999999943", "humidity" : "35.30519999999999925", "vin" : "113.67359999999999332", "pressure" : "205.29259999999999309", "lat" : "-31.95050000000000168", "lon" : "115.86050000000000182" }
2019-06-21T19:38:34 32792755 84913d... logstats { "device_id" : 3000, "temperature" : "10.00169999999999959", "humidity" : "35.36789999999999878", "vin" : "117.57989999999999498", "pressure" : "205.29269999999999641", "lat" : "-31.95050000000000168", "lon" : "115.86050000000000182" }
2019-06-21T19:34:27 32792262 290338... logstats { "device_id" : 3000, "temperature" : "10.41569999999999929", "humidity" : "35.62850000000000250", "vin" : "109.37669999999999959", "pressure" : "205.29839999999998668", "lat" : "-31.95050000000000168", "lon" : "115.86050000000000182" }
2019-06-21T19:20:43 32790612 dec9fb... logstats { "device_id" : 3000, "temperature" : "10.46969999999999956", "humidity" : "34.53009999999999735", "vin" : "67.18850000000000477", "pressure" : "205.29439999999999600", "lat" : "-31.95050000000000168", "lon" : "115.86050000000000182" }
2019-06-21T19:19:29 32790462 817a23... logstats { "device_id" : 3000, "temperature" : "10.41569999999999929", "humidity" : "34.51359999999999673", "vin" : "67.96980000000000643", "pressure" : "205.29669999999998709", "lat" : "-31.95050000000000168", "lon" : "115.86050000000000182" }
2019-06-21T19:18:11 32790312 21732b... logstats { "device_id" : 3000, "temperature" : "10.36170000000000080", "humidity" : "34.81380000000000052", "vin" : "59.76650000000000063", "pressure" : "205.29800000000000182", "lat" : "-31.95050000000000168", "lon" : "115.86050000000000182" }
2019-06-21T19:08:05 32789097 9dc964... logstats { "device_id" : 3000, "temperature" : "9.96570000000000000", "humidity" : "35.27219999999999800", "vin" : "89.84510000000000218", "pressure" : "205.32560000000000855", "lat" : "-31.95050000000000168", "lon" : "115.86050000000000182" }
2019-06-21T18:53:37 32787368 c27606... logstats { "device_id" : 3000, "temperature" : "10.37969999999999970", "humidity" : "34.44100000000000250", "vin" : "48.43820000000000192", "pressure" : "205.30709999999999127", "lat" : "-31.95050000000000168", "lon" : "115.86050000000000182" }
2019-06-21T18:49:30 32786870 5d3a5a... logstats { "device_id" : 3000, "temperature" : "10.30770000000000053", "humidity" : "34.48060000000000258", "vin" : "34.37550000000000239", "pressure" : "205.31020000000000891", "lat" : "-31.95050000000000168", "lon" : "115.86050000000000182" }
2019-06-21T18:45:28 32786384 87a3f4... logstats { "device_id" : 3000, "temperature" : "10.39770000000000039", "humidity" : "34.26950000000000074", "vin" : "19.92220000000000013", "pressure" : "205.30529999999998836", "lat" : "-31.95050000000000168", "lon" : "115.86050000000000182" }
2019-06-21T18:42:33 32786043 d579d3... logstats { "device_id" : 3000, "temperature" : "9.55160000000000053", "humidity" : "35.74060000000000059", "vin" : "80.07930000000000348", "pressure" : "205.32820000000000960", "lat" : "-31.95050000000000168", "lon" : "115.86050000000000182" }
2019-06-21T18:41:18 32785884 be0fb1... logstats { "device_id" : 3000, "temperature" : "9.71369999999999933", "humidity" : "35.43719999999999715", "vin" : "83.59499999999999886", "pressure" : "205.32830000000001291", "lat" : "-31.95050000000000168", "lon" : "115.86050000000000182" }
2019-06-21T18:40:03 32785736 7268a4... logstats { "device_id" : 3000, "temperature" : "9.76769999999999960", "humidity" : "35.45369999999999777", "vin" : "76.17300000000000182", "pressure" : "205.32329999999998904", "lat" : "-31.95050000000000168", "lon" : "115.86050000000000182" }
2019-06-21T18:37:21 32785412 230918... logstats { "device_id" : 3000, "temperature" : "9.62369999999999948", "humidity" : "35.17990000000000350", "vin" : "69.53230000000000643", "pressure" : "205.31860000000000355", "lat" : "-31.95050000000000168", "lon" : "115.86050000000000182" }
2019-06-21T18:36:07 32785262 5b019e... logstats { "device_id" : 3000, "temperature" : "9.87570000000000014", "humidity" : "34.79070000000000107", "vin" : "68.36039999999999850", "pressure" : "205.29949999999999477", "lat" : "-31.95050000000000168", "lon" : "115.86050000000000182" }
2019-06-21T18:34:47 32785110 8af0c3... logstats { "device_id" : 3000, "temperature" : "9.76769999999999960", "humidity" : "35.05449999999999733", "vin" : "68.75100000000000477", "pressure" : "205.30750000000000455", "lat" : "-31.95050000000000168", "lon" : "115.86050000000000182" }
2019-06-21T18:33:33 32784952 c7feec... logstats { "device_id" : 3000, "temperature" : "10.19969999999999999", "humidity" : "34.33550000000000324", "vin" : "56.25090000000000146", "pressure" : "205.29030000000000200", "lat" : "-31.95050000000000168", "lon" : "115.86050000000000182" }
2019-06-21T18:32:14 32784801 5cd7d7... logstats { "device_id" : 3000, "temperature" : "10.23569999999999958", "humidity" : "34.02210000000000178", "vin" : "58.20400000000000063", "pressure" : "205.27909999999999968", "lat" : "-31.95050000000000168", "lon" : "115.86050000000000182" }
2019-06-21T18:19:11 32783234 e79c8b... logstats { "device_id" : 3000, "temperature" : "10.27169999999999916", "humidity" : "34.32560000000000144", "vin" : "21.87529999999999930", "pressure" : "205.27119999999999322", "lat" : "-31.95050000000000168", "lon" : "115.86050000000000182" }
2019-06-21T18:12:05 32782377 85f642... logstats { "device_id" : 3000, "temperature" : "9.46160000000000068", "humidity" : "35.28869999999999862", "vin" : "102.73590000000000089", "pressure" : "205.30310000000000059", "lat" : "-31.95050000000000168", "lon" : "115.86050000000000182" }
2019-06-21T18:01:46 32781143 7f8102... logstats { "device_id" : 3000, "temperature" : "10.16370000000000040", "humidity" : "33.93310000000000315", "vin" : "90.23579999999999757", "pressure" : "205.24959999999998672", "lat" : "-31.95050000000000168", "lon" : "115.86050000000000182" }
2019-06-21T18:00:30 32780986 abff39... logstats { "device_id" : 3000, "temperature" : "10.27169999999999916", "humidity" : "33.64609999999999701", "vin" : "81.64190000000000680", "pressure" : "205.24189999999998690", "lat" : "-31.95050000000000168", "lon" : "115.86050000000000182" }
2019-06-21T17:59:14 32780835 630151... logstats { "device_id" : 3000, "temperature" : "10.16370000000000040", "humidity" : "33.97930000000000206", "vin" : "79.68869999999999720", "pressure" : "205.24379999999999313", "lat" : "-31.95050000000000168", "lon" : "115.86050000000000182" }
2019-06-21T17:52:12 32779998 5f1735... logstats { "device_id" : 3000, "temperature" : "10.09169999999999945", "humidity" : "34.22659999999999769", "vin" : "58.20400000000000063", "pressure" : "205.25090000000000146", "lat" : "-31.95050000000000168", "lon" : "115.86050000000000182" }
2019-06-21T17:49:34 32779678 7f6bd2... logstats { "device_id" : 3000, "temperature" : "10.03769999999999918", "humidity" : "33.99909999999999854", "vin" : "49.61010000000000275", "pressure" : "205.26840000000001396", "lat" : "-31.95050000000000168", "lon" : "115.86050000000000182" }
2019-06-21T17:46:48 32779351 ac888d... logstats { "device_id" : 3000, "temperature" : "9.89370000000000083", "humidity" : "36.02100000000000080", "vin" : "55.46959999999999980", "pressure" : "205.27909999999999968", "lat" : "-31.95050000000000168", "lon" : "115.86050000000000182" }
2019-06-21T17:42:19 32778815 94243c... logstats { "device_id" : 3000, "temperature" : "8.88560000000000016", "humidity" : "35.53940000000000055", "vin" : "55.07900000000000063", "pressure" : "205.31770000000000209", "lat" : "-31.95050000000000168", "lon" : "115.86050000000000182" }
2019-06-21T17:38:05 32778301 038182... logstats { "device_id" : 3000, "temperature" : "9.17360000000000042", "humidity" : "34.92589999999999861", "vin" : "54.29769999999999897", "pressure" : "205.32660000000001332", "lat" : "-31.95050000000000168", "lon" : "115.86050000000000182" }
2019-06-21T17:30:55 32777438 afa64d... logstats { "device_id" : 3000, "temperature" : "10.28969999999999985", "humidity" : "33.64280000000000115", "vin" : "33.98490000000000322", "pressure" : "205.29200000000000159", "lat" : "-31.95050000000000168", "lon" : "115.86050000000000182" }
2019-06-21T17:29:40 32777287 42bb55... logstats { "device_id" : 3000, "temperature" : "10.16370000000000040", "humidity" : "33.29979999999999762", "vin" : "38.67249999999999943", "pressure" : "205.29230000000001155", "lat" : "-31.95050000000000168", "lon" : "115.86050000000000182" }
2019-06-21T17:28:21 32777139 0f102e... logstats { "device_id" : 3000, "temperature" : "10.18169999999999931", "humidity" : "33.43500000000000227", "vin" : "33.20360000000000156", "pressure" : "205.29159999999998831", "lat" : "-31.95050000000000168", "lon" : "115.86050000000000182" }
2019-06-21T17:25:25 32776787 a4bb35... logstats { "device_id" : 3000, "temperature" : "10.25370000000000026", "humidity" : "33.58350000000000080", "vin" : "31.25049999999999883", "pressure" : "205.29800000000000182", "lat" : "-31.95050000000000168", "lon" : "115.86050000000000182" }
2019-06-21T17:22:42 32776455 e71bca... logstats { "device_id" : 3000, "temperature" : "10.10970000000000013", "humidity" : "33.62299999999999756", "vin" : "26.56289999999999907", "pressure" : "205.29089999999999350", "lat" : "-31.95050000000000168", "lon" : "115.86050000000000182" }
2019-06-21T17:20:03 32776136 e06b99... logstats { "device_id" : 3000, "temperature" : "10.09169999999999945", "humidity" : "33.75500000000000256", "vin" : "30.46920000000000073", "pressure" : "205.28049999999998931", "lat" : "-31.95050000000000168", "lon" : "115.86050000000000182" }
2019-06-21T17:12:45 32775268 67db83... logstats { "device_id" : 3000, "temperature" : "9.11960000000000015", "humidity" : "35.20960000000000178", "vin" : "46.48510000000000275", "pressure" : "205.30830000000000268", "lat" : "-31.95050000000000168", "lon" : "115.86050000000000182" }
2019-06-21T17:08:30 32774750 a05cf4... logstats { "device_id" : 3000, "temperature" : "8.88560000000000016", "humidity" : "35.47670000000000101", "vin" : "34.76619999999999777", "pressure" : "205.30199999999999250", "lat" : "-31.95050000000000168", "lon" : "115.86050000000000182" }
2019-06-21T17:02:51 32774073 b9c59a... logstats { "device_id" : 3000, "temperature" : "9.89370000000000083", "humidity" : "33.23380000000000223", "vin" : "58.20400000000000063", "pressure" : "205.32189999999999941", "lat" : "-31.95050000000000168", "lon" : "115.86050000000000182" }
2019-06-21T16:57:22 32773414 ade4c6... logstats { "device_id" : 3000, "temperature" : "10.01970000000000027", "humidity" : "33.15469999999999828", "vin" : "58.59459999999999980", "pressure" : "205.28980000000001382", "lat" : "-31.95050000000000168", "lon" : "115.86050000000000182" }
2019-06-21T16:54:38 32773092 b048d0... logstats { "device_id" : 3000, "temperature" : "10.21770000000000067", "humidity" : "33.10849999999999937", "vin" : "42.18809999999999860", "pressure" : "205.28329999999999700", "lat" : "-31.95050000000000168", "lon" : "115.86050000000000182" }
2019-06-21T16:52:03 32772778 a787eb... logstats { "device_id" : 3000, "temperature" : "9.83970000000000056", "humidity" : "33.79780000000000229", "vin" : "45.31320000000000192", "pressure" : "205.29769999999999186", "lat" : "-31.95050000000000168", "lon" : "115.86050000000000182" }
2019-06-21T16:49:26 32772464 4649a4... logstats { "device_id" : 3000, "temperature" : "10.03769999999999918", "humidity" : "33.45150000000000290", "vin" : "31.25049999999999883", "pressure" : "205.29060000000001196", "lat" : "-31.95050000000000168", "lon" : "115.86050000000000182" }
2019-06-21T16:48:12 32772314 ca3048... logstats { "device_id" : 3000, "temperature" : "9.85769999999999946", "humidity" : "34.03529999999999944", "vin" : "41.40690000000000026", "pressure" : "205.29540000000000077", "lat" : "-31.95050000000000168", "lon" : "115.86050000000000182" }
2019-06-21T16:38:13 32771124 b31f65... logstats { "device_id" : 3000, "temperature" : "8.59759999999999991", "humidity" : "34.68180000000000263", "vin" : "31.25049999999999883", "pressure" : "205.30119999999999436", "lat" : "-31.95050000000000168", "lon" : "115.86050000000000182" }
2019-06-21T16:33:52 32770594 42f1a5... logstats { "device_id" : 3000, "temperature" : "8.65160000000000018", "humidity" : "34.89950000000000330", "vin" : "26.17229999999999990", "pressure" : "205.28700000000000614", "lat" : "-31.95050000000000168", "lon" : "115.86050000000000182" }
2019-06-21T16:31:05 32770269 22b98e... logstats { "device_id" : 3000, "temperature" : "9.82169999999999987", "humidity" : "33.49110000000000298", "vin" : "57.81340000000000146", "pressure" : "205.29079999999999018", "lat" : "-31.95050000000000168", "lon" : "115.86050000000000182" }
2019-06-21T16:28:22 32769935 99c38c... logstats { "device_id" : 3000, "temperature" : "10.03769999999999918", "humidity" : "33.02929999999999922", "vin" : "60.15720000000000312", "pressure" : "205.25970000000000937", "lat" : "-31.95050000000000168", "lon" : "115.86050000000000182" }
2019-06-21T16:27:04 32769784 e9ce4c... logstats { "device_id" : 3000, "temperature" : "9.89370000000000083", "humidity" : "33.18760000000000332", "vin" : "57.42280000000000229", "pressure" : "205.27060000000000173", "lat" : "-31.95050000000000168", "lon" : "115.86050000000000182" }
2019-06-21T16:25:40 32769613 77e420... logstats { "device_id" : 3000, "temperature" : "9.87570000000000014", "humidity" : "33.40859999999999985", "vin" : "58.98530000000000229", "pressure" : "205.27619999999998868", "lat" : "-31.95050000000000168", "lon" : "115.86050000000000182" }
2019-06-21T16:23:04 32769301 8c607a... logstats { "device_id" : 3000, "temperature" : "9.87570000000000014", "humidity" : "33.46139999999999759", "vin" : "51.56329999999999814", "pressure" : "205.28329999999999700", "lat" : "-31.95050000000000168", "lon" : "115.86050000000000182" }
2019-06-21T16:17:27 32768624 66b9e6... logstats { "device_id" : 3000, "temperature" : "9.69570000000000043", "humidity" : "34.10130000000000194", "vin" : "30.85979999999999990", "pressure" : "205.28360000000000696", "lat" : "-31.95050000000000168", "lon" : "115.86050000000000182" }
2019-06-21T16:04:37 32767084 2ef88a... logstats { "device_id" : 3000, "temperature" : "8.47160000000000046", "humidity" : "35.11059999999999803", "vin" : "0.78129999999999999", "pressure" : "205.26529999999999632", "lat" : "-31.95050000000000168", "lon" : "115.86050000000000182" }
2019-06-21T16:03:22 32766935 de7a93... logstats { "device_id" : 3000, "temperature" : "8.39959999999999951", "humidity" : "34.97209999999999752", "vin" : "3.12500000000000000", "pressure" : "205.27330000000000609", "lat" : "-31.95050000000000168", "lon" : "115.86050000000000182" }
2019-06-21T16:00:29 32766590 b1a3bb... logstats { "device_id" : 3000, "temperature" : "9.44359999999999999", "humidity" : "33.46470000000000056", "vin" : "244.92560000000000286", "pressure" : "205.26050000000000750", "lat" : "-31.95050000000000168", "lon" : "115.86050000000000182" }
2019-06-21T15:56:20 32766089 95e580... logstats { "device_id" : 3000, "temperature" : "9.71369999999999933", "humidity" : "33.52080000000000126", "vin" : "241.01929999999998699", "pressure" : "205.24760000000000559", "lat" : "-31.95050000000000168", "lon" : "115.86050000000000182" }
2019-06-21T15:53:34 32765763 71b0f3... logstats { "device_id" : 3000, "temperature" : "9.51559999999999917", "humidity" : "33.69230000000000302", "vin" : "240.23799999999999955", "pressure" : "205.27139999999999986", "lat" : "-31.95050000000000168", "lon" : "115.86050000000000182" }
2019-06-21T15:50:47 32765432 7f39fc... logstats { "device_id" : 3000, "temperature" : "9.73170000000000002", "humidity" : "34.34539999999999793", "vin" : "241.80060000000000286", "pressure" : "205.27869999999998640", "lat" : "-31.95050000000000168", "lon" : "115.86050000000000182" }
2019-06-21T15:48:06 32765102 ba3b44... logstats { "device_id" : 3000, "temperature" : "9.49760000000000026", "humidity" : "33.31629999999999825", "vin" : "24.21910000000000096", "pressure" : "205.27610000000001378", "lat" : "-31.95050000000000168", "lon" : "115.86050000000000182" }
2019-06-21T15:45:21 32764778 f21f7f... logstats { "device_id" : 3000, "temperature" : "9.19159999999999933", "humidity" : "33.91660000000000252", "vin" : "7.42199999999999971", "pressure" : "205.27740000000000009", "lat" : "-31.95050000000000168", "lon" : "115.86050000000000182" }
2019-06-21T15:35:33 32763601 29fe0c... logstats { "device_id" : 3000, "temperature" : "8.23760000000000048", "humidity" : "34.97870000000000346", "vin" : "4.68759999999999977", "pressure" : "205.25780000000000314", "lat" : "-31.95050000000000168", "lon" : "115.86050000000000182" }
2019-06-21T15:32:46 32763267 c24ab5... logstats { "device_id" : 3000, "temperature" : "8.29160000000000075", "humidity" : "34.53009999999999735", "vin" : "241.40989999999999327", "pressure" : "205.26359999999999673", "lat" : "-31.95050000000000168", "lon" : "115.86050000000000182" }
2019-06-21T15:25:37 32762406 976741... logstats { "device_id" : 3000, "temperature" : "9.51559999999999917", "humidity" : "33.25359999999999872", "vin" : "242.97249999999999659", "pressure" : "205.22509999999999764", "lat" : "-31.95050000000000168", "lon" : "115.86050000000000182" }
2019-06-21T15:18:07 32761510 c75c7c... logstats { "device_id" : 3000, "temperature" : "9.31760000000000055", "humidity" : "33.72529999999999717", "vin" : "241.40989999999999327", "pressure" : "205.24529999999998608", "lat" : "-31.95050000000000168", "lon" : "115.86050000000000182" }
2019-06-21T15:15:25 32761177 28c5c5... logstats { "device_id" : 3000, "temperature" : "8.92159999999999975", "humidity" : "33.81099999999999994", "vin" : "24.21910000000000096", "pressure" : "205.22589999999999577", "lat" : "-31.95050000000000168", "lon" : "115.86050000000000182" }
2019-06-21T15:09:45 32760508 b3cfe8... logstats { "device_id" : 3000, "temperature" : "8.00350000000000072", "humidity" : "35.15350000000000108", "vin" : "10.54700000000000060", "pressure" : "205.24060000000000059", "lat" : "-31.95050000000000168", "lon" : "115.86050000000000182" }
2019-06-21T15:05:39 32760016 63a780... logstats { "device_id" : 3000, "temperature" : "7.87750000000000039", "humidity" : "35.05449999999999733", "vin" : "1.56250000000000000", "pressure" : "205.25380000000001246", "lat" : "-31.95050000000000168", "lon" : "115.86050000000000182" }
2019-06-21T15:04:20 32759856 b8eda5... logstats { "device_id" : 3000, "temperature" : "8.43560000000000088", "humidity" : "34.47729999999999961", "vin" : "3.51569999999999983", "pressure" : "205.25970000000000937", "lat" : "-31.95050000000000168", "lon" : "115.86050000000000182" }
2019-06-21T15:01:29 32759508 b0d5a5... logstats { "device_id" : 3000, "temperature" : "8.59759999999999991", "humidity" : "34.34210000000000207", "vin" : "7.42199999999999971", "pressure" : "205.24309999999999832", "lat" : "-31.95050000000000168", "lon" : "115.86050000000000182" }
2019-06-21T15:00:13 32759358 b2cc8f... logstats { "device_id" : 3000, "temperature" : "8.56160000000000032", "humidity" : "34.15740000000000265", "vin" : "5.07819999999999983", "pressure" : "205.22780000000000200", "lat" : "-31.95050000000000168", "lon" : "115.86050000000000182" }
2019-06-21T14:50:00 32758130 f1336f... logstats { "device_id" : 3000, "temperature" : "9.24559999999999960", "humidity" : "33.42179999999999751", "vin" : "241.01929999999998699", "pressure" : "205.24639999999999418", "lat" : "-31.95050000000000168", "lon" : "115.86050000000000182" }
2019-06-21T14:45:59 32757647 794bde... logstats { "device_id" : 3000, "temperature" : "8.86759999999999948", "humidity" : "33.57359999999999900", "vin" : "242.19120000000000914", "pressure" : "205.23359999999999559", "lat" : "-31.95050000000000168", "lon" : "115.86050000000000182" }
2019-06-21T14:44:43 32757497 8830b9... logstats { "device_id" : 3000, "temperature" : "8.57959999999999923", "humidity" : "33.86379999999999768", "vin" : "7.81259999999999977", "pressure" : "205.22829999999999018", "lat" : "-31.95050000000000168", "lon" : "115.86050000000000182" }
2019-06-21T14:40:25 32756986 7b4b1d... logstats { "device_id" : 3000, "temperature" : "8.23760000000000048", "humidity" : "34.71479999999999677", "vin" : "0.78129999999999999", "pressure" : "205.21870000000001255", "lat" : "-31.95050000000000168", "lon" : "115.86050000000000182" }
2019-06-21T14:36:15 32756484 56461f... logstats { "device_id" : 3000, "temperature" : "7.85949999999999971", "humidity" : "34.29919999999999902", "vin" : "241.40989999999999327", "pressure" : "205.21070000000000277", "lat" : "-31.95050000000000168", "lon" : "115.86050000000000182" }
2019-06-21T14:33:28 32756154 7e97b4... logstats { "device_id" : 3000, "temperature" : "8.14750000000000085", "humidity" : "31.76269999999999882", "vin" : "239.45679999999998699", "pressure" : "205.21530000000001337", "lat" : "-31.95050000000000168", "lon" : "115.86050000000000182" }
2019-06-21T14:27:38 32755446 0d7e2a... logstats { "device_id" : 3000, "temperature" : "9.24559999999999960", "humidity" : "33.69559999999999889", "vin" : "239.45679999999998699", "pressure" : "205.20349999999999113", "lat" : "-31.95050000000000168", "lon" : "115.86050000000000182" }
2019-06-21T14:26:22 32755297 d7e3e9... logstats { "device_id" : 3000, "temperature" : "9.02960000000000029", "humidity" : "33.53070000000000306", "vin" : "240.23799999999999955", "pressure" : "205.19270000000000209", "lat" : "-31.95050000000000168", "lon" : "115.86050000000000182" }
2019-06-21T14:22:06 32754783 135712... logstats { "device_id" : 3000, "temperature" : "9.04759999999999920", "humidity" : "33.23709999999999809", "vin" : "240.62870000000000914", "pressure" : "205.19460000000000832", "lat" : "-31.95050000000000168", "lon" : "115.86050000000000182" }
2019-06-21T14:20:51 32754634 cf5a0d... logstats { "device_id" : 3000, "temperature" : "9.02960000000000029", "humidity" : "33.43829999999999814", "vin" : "241.80060000000000286", "pressure" : "205.18969999999998777", "lat" : "-31.95050000000000168", "lon" : "115.86050000000000182" }
2019-06-21T14:16:38 32754131 828238... logstats { "device_id" : 3000, "temperature" : "8.86759999999999948", "humidity" : "33.54719999999999658", "vin" : "19.92220000000000013", "pressure" : "205.18580000000000041", "lat" : "-31.95050000000000168", "lon" : "115.86050000000000182" }
2019-06-21T14:15:22 32753975 4a9326... logstats { "device_id" : 3000, "temperature" : "8.77759999999999962", "humidity" : "33.76489999999999725", "vin" : "15.23460000000000036", "pressure" : "205.18319999999999936", "lat" : "-31.95050000000000168", "lon" : "115.86050000000000182" }
2019-06-21T14:11:12 32753475 86f10d... logstats { "device_id" : 3000, "temperature" : "8.66960000000000086", "humidity" : "34.28600000000000136", "vin" : "3.90629999999999988", "pressure" : "205.18719999999999004", "lat" : "-31.95050000000000168", "lon" : "115.86050000000000182" }
2019-06-21T14:09:54 32753328 4d5830... logstats { "device_id" : 3000, "temperature" : "7.94949999999999957", "humidity" : "35.00180000000000291", "vin" : "0.78129999999999999", "pressure" : "205.18610000000001037", "lat" : "-31.95050000000000168", "lon" : "115.86050000000000182" }
2019-06-21T13:58:17 32751922 b7adfc... logstats { "device_id" : 3000, "temperature" : "8.61560000000000059", "humidity" : "33.72200000000000131", "vin" : "240.62870000000000914", "pressure" : "205.18029999999998836", "lat" : "-31.95050000000000168", "lon" : "115.86050000000000182" }
2019-06-21T13:56:56 32751771 924296... logstats { "device_id" : 3000, "temperature" : "9.08360000000000056", "humidity" : "34.29590000000000316", "vin" : "240.23799999999999955", "pressure" : "205.16290000000000759", "lat" : "-31.95050000000000168", "lon" : "115.86050000000000182" }
2019-06-21T13:54:12 32751440 1ce054... logstats { "device_id" : 3000, "temperature" : "9.20960000000000001", "humidity" : "33.37890000000000157", "vin" : "239.84739999999999327", "pressure" : "205.16820000000001301", "lat" : "-31.95050000000000168", "lon" : "115.86050000000000182" }
2019-06-21T13:49:42 32750902 9e934c... logstats { "device_id" : 3000, "temperature" : "9.13760000000000083", "humidity" : "32.94030000000000058", "vin" : "240.62870000000000914", "pressure" : "205.15729999999999222", "lat" : "-31.95050000000000168", "lon" : "115.86050000000000182" }
2019-06-21T13:45:25 32750387 90d491... logstats { "device_id" : 3000, "temperature" : "8.88560000000000016", "humidity" : "33.54719999999999658", "vin" : "239.84739999999999327", "pressure" : "205.14230000000000587", "lat" : "-31.95050000000000168", "lon" : "115.86050000000000182" }
2019-06-21T13:32:17 32748814 848647... logstats { "device_id" : 3000, "temperature" : "8.27360000000000007", "humidity" : "34.10459999999999781", "vin" : "241.40989999999999327", "pressure" : "205.09819999999999141", "lat" : "-31.95050000000000168", "lon" : "115.86050000000000182" }
2019-06-21T13:30:57 32748653 274021... logstats { "device_id" : 3000, "temperature" : "8.36359999999999992", "humidity" : "34.25959999999999894", "vin" : "239.45679999999998699", "pressure" : "205.09549999999998704", "lat" : "-31.95050000000000168", "lon" : "115.86050000000000182" }
2019-06-21T13:26:40 32748140 27beaa... logstats { "device_id" : 3000, "temperature" : "9.11960000000000015", "humidity" : "33.70550000000000068", "vin" : "241.40989999999999327", "pressure" : "205.08580000000000609", "lat" : "-31.95050000000000168", "lon" : "115.86050000000000182" }
2019-06-21T13:20:56 32747449 76b63d... logstats { "device_id" : 3000, "temperature" : "8.86759999999999948", "humidity" : "33.31629999999999825", "vin" : "20.70339999999999847", "pressure" : "205.08930000000000859", "lat" : "-31.95050000000000168", "lon" : "115.86050000000000182" }
2019-06-21T13:18:10 32747109 daa10d... logstats { "device_id" : 3000, "temperature" : "8.95759999999999934", "humidity" : "33.60979999999999990", "vin" : "16.01589999999999847", "pressure" : "205.10200000000000387", "lat" : "-31.95050000000000168", "lon" : "115.86050000000000182" }
2019-06-21T13:16:54 32746958 e665c5... logstats { "device_id" : 3000, "temperature" : "9.01159999999999961", "humidity" : "33.88689999999999714", "vin" : "23.82849999999999824", "pressure" : "205.09909999999999286", "lat" : "-31.95050000000000168", "lon" : "115.86050000000000182" }
2019-06-21T13:14:03 32746616 97c5ab... logstats { "device_id" : 3000, "temperature" : "8.65160000000000018", "humidity" : "34.40480000000000160", "vin" : "11.71889999999999965", "pressure" : "205.09250000000000114", "lat" : "-31.95050000000000168", "lon" : "115.86050000000000182" }
2019-06-21T13:12:43 32746464 ca89c0... logstats { "device_id" : 3000, "temperature" : "8.88560000000000016", "humidity" : "33.90999999999999659", "vin" : "14.45330000000000048", "pressure" : "205.09309999999999263", "lat" : "-31.95050000000000168", "lon" : "115.86050000000000182" }
2019-06-21T13:05:34 32745604 be2c73... logstats { "device_id" : 3000, "temperature" : "8.12950000000000017", "humidity" : "33.31300000000000239", "vin" : "1.56250000000000000", "pressure" : "205.10820000000001073", "lat" : "-31.95050000000000168", "lon" : "115.86050000000000182" }
2019-06-21T13:04:18 32745447 c799f3... logstats { "device_id" : 3000, "temperature" : "8.52560000000000073", "humidity" : "34.12440000000000140", "vin" : "0.78129999999999999", "pressure" : "205.10849999999999227", "lat" : "-31.95050000000000168", "lon" : "115.86050000000000182" }
2019-06-21T12:45:14 32743160 0eac03... logstats { "device_id" : 3000, "temperature" : "8.79560000000000031", "humidity" : "33.80109999999999815", "vin" : "240.23799999999999955", "pressure" : "205.06929999999999836", "lat" : "-31.95050000000000168", "lon" : "115.86050000000000182" }
2019-06-21T12:39:26 32742470 5654e7... logstats { "device_id" : 3000, "temperature" : "8.74160000000000004", "humidity" : "33.95620000000000260", "vin" : "4.68759999999999977", "pressure" : "205.05789999999998940", "lat" : "-31.95050000000000168", "lon" : "115.86050000000000182" }
2019-06-21T12:38:10 32742316 aaa2e1... logstats { "device_id" : 3000, "temperature" : "8.38160000000000061", "humidity" : "34.63559999999999661", "vin" : "1.17189999999999994", "pressure" : "205.05930000000000746", "lat" : "-31.95050000000000168", "lon" : "115.86050000000000182" }
2019-06-21T12:35:28 32741988 79495e... logstats { "device_id" : 3000, "temperature" : "8.20149999999999935", "humidity" : "34.20029999999999859", "vin" : "241.80060000000000286", "pressure" : "205.06209999999998672", "lat" : "-31.95050000000000168", "lon" : "115.86050000000000182" }
2019-06-21T12:32:45 32741662 8b6e59... logstats { "device_id" : 3000, "temperature" : "8.41760000000000019", "humidity" : "34.23319999999999652", "vin" : "242.19120000000000914", "pressure" : "205.05889999999999418", "lat" : "-31.95050000000000168", "lon" : "115.86050000000000182" }
2019-06-21T12:24:15 32740645 7ab588... logstats { "device_id" : 3000, "temperature" : "9.04759999999999920", "humidity" : "33.32950000000000301", "vin" : "240.23799999999999955", "pressure" : "205.06250000000000000", "lat" : "-31.95050000000000168", "lon" : "115.86050000000000182" }
2019-06-21T12:22:58 32740495 6b0af0... logstats { "device_id" : 3000, "temperature" : "9.01159999999999961", "humidity" : "34.32229999999999848", "vin" : "241.80060000000000286", "pressure" : "205.05879999999999086", "lat" : "-31.95050000000000168", "lon" : "115.86050000000000182" }
2019-06-21T12:17:14 32739801 c2d337... logstats { "device_id" : 3000, "temperature" : "8.97560000000000002", "humidity" : "33.45810000000000173", "vin" : "240.62870000000000914", "pressure" : "205.03610000000000468", "lat" : "-31.95050000000000168", "lon" : "115.86050000000000182" }
2019-06-21T12:14:31 32739476 05b580... logstats { "device_id" : 3000, "temperature" : "8.92159999999999975", "humidity" : "33.63620000000000232", "vin" : "242.19120000000000914", "pressure" : "205.03380000000001360", "lat" : "-31.95050000000000168", "lon" : "115.86050000000000182" }
2019-06-21T12:13:17 32739324 54ed21... logstats { "device_id" : 3000, "temperature" : "8.83159999999999989", "humidity" : "33.41850000000000165", "vin" : "241.01929999999998699", "pressure" : "205.02709999999999013", "lat" : "-31.95050000000000168", "lon" : "115.86050000000000182" }
2019-06-21T12:04:30 32738276 9cb48c... logstats { "device_id" : 3000, "temperature" : "8.52560000000000073", "humidity" : "33.85719999999999885", "vin" : "241.01929999999998699", "pressure" : "205.03790000000000759", "lat" : "-31.95050000000000168", "lon" : "115.86050000000000182" }
2019-06-21T11:58:39 32737578 5b568d... logstats { "device_id" : 3000, "temperature" : "9.20960000000000001", "humidity" : "33.09859999999999758", "vin" : "241.40989999999999327", "pressure" : "205.01890000000000214", "lat" : "-31.95050000000000168", "lon" : "115.86050000000000182" }
2019-06-21T11:57:22 32737420 9b49aa... logstats { "device_id" : 3000, "temperature" : "9.26360000000000028", "humidity" : "33.45479999999999876", "vin" : "242.19120000000000914", "pressure" : "205.00620000000000687", "lat" : "-31.95050000000000168", "lon" : "115.86050000000000182" }
2019-06-21T11:56:06 32737264 d5ad61... logstats { "device_id" : 3000, "temperature" : "9.19159999999999933", "humidity" : "33.18099999999999739", "vin" : "242.58179999999998699", "pressure" : "205.01709999999999923", "lat" : "-31.95050000000000168", "lon" : "115.86050000000000182" }
2019-06-21T11:53:25 32736948 5eb563... logstats { "device_id" : 3000, "temperature" : "9.20960000000000001", "humidity" : "33.14809999999999945", "vin" : "242.97249999999999659", "pressure" : "205.00309999999998922", "lat" : "-31.95050000000000168", "lon" : "115.86050000000000182" }
2019-06-21T11:49:09 32736436 71a32c... logstats { "device_id" : 3000, "temperature" : "9.20960000000000001", "humidity" : "33.14809999999999945", "vin" : "242.19120000000000914", "pressure" : "204.99549999999999272", "lat" : "-31.95050000000000168", "lon" : "115.86050000000000182" }
2019-06-21T11:36:12 32734878 e178e4... logstats { "device_id" : 3000, "temperature" : "8.00350000000000072", "humidity" : "34.44429999999999836", "vin" : "243.75370000000000914", "pressure" : "204.99690000000001078", "lat" : "-31.95050000000000168", "lon" : "115.86050000000000182" }
2019-06-21T11:29:15 32734049 a0ec82... logstats { "device_id" : 3000, "temperature" : "8.77759999999999962", "humidity" : "33.39209999999999923", "vin" : "242.19120000000000914", "pressure" : "204.98230000000000928", "lat" : "-31.95050000000000168", "lon" : "115.86050000000000182" }
2019-06-21T11:28:00 32733892 608540... logstats { "device_id" : 3000, "temperature" : "9.46160000000000068", "humidity" : "33.36910000000000309", "vin" : "243.75370000000000914", "pressure" : "204.97610000000000241", "lat" : "-31.95050000000000168", "lon" : "115.86050000000000182" }
2019-06-21T11:26:44 32733742 d7f11f... logstats { "device_id" : 3000, "temperature" : "9.44359999999999999", "humidity" : "32.88419999999999987", "vin" : "242.58179999999998699", "pressure" : "204.94929999999999382", "lat" : "-31.95050000000000168", "lon" : "115.86050000000000182" }
2019-06-21T11:24:00 32733413 63753d... logstats { "device_id" : 3000, "temperature" : "9.49760000000000026", "humidity" : "32.88089999999999691", "vin" : "242.97249999999999659", "pressure" : "204.94020000000000437", "lat" : "-31.95050000000000168", "lon" : "115.86050000000000182" }
2019-06-21T11:18:10 32732717 0c91ef... logstats { "device_id" : 3000, "temperature" : "9.35360000000000014", "humidity" : "33.03260000000000218", "vin" : "242.58179999999998699", "pressure" : "204.93229999999999791", "lat" : "-31.95050000000000168", "lon" : "115.86050000000000182" }
2019-06-21T11:16:56 32732566 f44225... logstats { "device_id" : 3000, "temperature" : "9.28159999999999918", "humidity" : "31.69999999999999929", "vin" : "242.19120000000000914", "pressure" : "204.94350000000000023", "lat" : "-31.95050000000000168", "lon" : "115.86050000000000182" }
2019-06-21T11:14:15 32732241 af8124... logstats { "device_id" : 3000, "temperature" : "9.19159999999999933", "humidity" : "33.16460000000000008", "vin" : "243.36310000000000286", "pressure" : "204.96160000000000423", "lat" : "-31.95050000000000168", "lon" : "115.86050000000000182" }
2019-06-21T11:11:24 32731900 e1aaf5... logstats { "device_id" : 3000, "temperature" : "9.17360000000000042", "humidity" : "32.70940000000000225", "vin" : "242.97249999999999659", "pressure" : "204.96270000000001232", "lat" : "-31.95050000000000168", "lon" : "115.86050000000000182" }
2019-06-21T11:04:05 32731028 5f5ae0... logstats { "device_id" : 3000, "temperature" : "8.39959999999999951", "humidity" : "34.09140000000000015", "vin" : "241.01929999999998699", "pressure" : "204.95679999999998699", "lat" : "-31.95050000000000168", "lon" : "115.86050000000000182" }
2019-06-21T11:01:17 32730687 245c22... logstats { "device_id" : 3000, "temperature" : "8.70560000000000045", "humidity" : "31.70990000000000109", "vin" : "239.84739999999999327", "pressure" : "204.93799999999998818", "lat" : "-31.95050000000000168", "lon" : "115.86050000000000182" }
2019-06-21T10:59:59 32730536 9d7733... logstats { "device_id" : 3000, "temperature" : "8.79560000000000031", "humidity" : "33.42179999999999751", "vin" : "238.67549999999999955", "pressure" : "204.94220000000001392", "lat" : "-31.95050000000000168", "lon" : "115.86050000000000182" }